Filtrer par Nom Sexe Groupe d'age
Vaujany GranFondo 2003
RG. DOS. TEMPS CAT RG. POINTS
1 99 COLEVRET PHILIPPE 05:41:11:000 D 1 330.00 NICE, FRANCE
2 60 BEILLEVERT LAURENT 05:41:33:000 D 2 328.90 GIEN, FRANCE
3 69 HIDDEMA OEGE 05:41:39:000 D 3 327.80 GRONINGEN, Pays-Bas
4 70 DEKKER BERT 05:42:06:000 D 4 326.70 LEKKERKERPIK, Pays-Bas
5 66 SARLIN JEAN NOEL 05:54:47:000 D 5 325.60 LARAGNE, FRANCE
6 125 SMITS SANDER 05:56:08:000 C 1 330.00 UTRECHT, Pays-bas
7 224 CALONNE OLIVIER 05:56:23:000 D 6 324.50 LE CREUSOT, FRANCE
8 7 SACAZE MICHEL 05:56:32:000 F 1 330.00 ALGORTA (BIZKAIA), ANDORRE
9 31 DULAURENT OLIVIER 05:57:08:000 C 2 328.90 CAMBRONNE LES CLERMONT, FRANCE
10 314 MARLIER JEROME 05:57:29:000 D 7 323.40 CONFLANS SUR ANILLE, FRANCE
11 16 HUGUES RICO 05:57:41:000 D 8 322.30 Grenoble, France
12 106 KLEISER DIETER 05:58:35:000 E 1 330.00 RADOLFZELL, ALLEMAGNE
13 73 FOURNIER GILLES 05:59:35:000 D 9 321.20 LA TRONCHE, FRANCE
14 226 DELAHAYE GUILLAUME 06:01:04:000 D 10 320.10 SAINT MATHIEU DE TREVIERS, FRANCE
15 135 SERRET LUDOVIC 06:04:26:000 D 11 319.00 VILLENEUVE LES MAGUELONE, FRANCE
16 179 LANTUEJOUL JULIEN 06:04:35:000 C 3 327.80 FONTAINES S/SAONE, FRANCE
17 71 GERFEU NICOLAS 06:06:01:000 D 12 317.90 SAINT LATTIER, FRANCE
18 166 ESPOSITO ANDRE 06:06:30:000 F 2 328.90 SAINT JEAN DE MAURIENNE, France
19 144 JANDARD NICOLAS 06:06:39:000 C 4 326.70 ANNEMASSE, FRANCE
20 102 SPEYBROUCK FILIP 06:06:53:000 C 5 325.60 BRUGGE, BELGIQUE
21 199 NUSS ALEXANDRE 06:07:54:000 D 13 316.80 LYON, FRANCE
22 98 GUERAUD PATRICK 06:08:28:000 D 14 315.70 ALPE D HUEZ, France
23 138 DUCHENE JEROME 06:08:48:000 D 15 314.60 PRINGY, FRANCE
24 61 SANAHUGES GILLES 06:08:55:000 E 2 328.90 GRENOBLE, FRANCE
25 64 DEPLANTE PATRICE 06:09:46:400 E 3 327.80 BALLAISON, France
26 228 COLLARD CHRISTOPHE 06:09:49:000 D 16 313.50 LE BESSAT, FRANCE
27 8 SCHWAB PATRICK 06:10:08:000 F 3 327.80 ST BAUZILLE DE MONTMEL, FRANCE
28 275 VANDEWINKEL PETER 06:14:00:000 E 4 326.70 NEEROETEREN - MAASEIK, BELGIQUE
29 154 LEUCKX MARC 06:15:15:000 D 17 312.40 LENNIK, BELGIQUE
30 463 VILLAIR VINCENT 06:15:46:000 D 18 311.30 PARIS, FRANCE
31 115 HEFNER HEIKO 06:15:52:000 D 19 310.20 HEETSTADT, ALLEMAGNE
32 40 MIRANDA DIDIER 06:15:58:000 D 20 309.10 ST BERNARD DU TOUVET, France
33 178 SALMON JEAN-YVES 06:16:11:000 E 5 325.60 THURINS, France
34 52 PASTOR JOSE LUIS 06:16:24:000 C 6 324.50 TRAVAILLAN, FRANCE
35 231 BARTHELEMY JEAN CLAUDE 06:16:40:000 D 21 308.00 PONTCHARRA, France
36 67 MOSSELMANS BERNARD 06:17:18:000 D 22 306.90 WAVRE, BELGIQUE
37 81 BOONSTRA JOS 06:21:51:000 C 7 323.40 VENOSC, Pays-Bas
38 239 PERZO CLAUDE 06:21:53:600 E 6 324.50 HA NQI, Viet nam
39 161 COMBES JEAN MARC 06:22:23:000 E 7 323.40 FUVEAU, FRANCE
40 324 DEMESY FRANCK 06:22:38:000 D 23 305.80 LANEUVEVILLE, FRANCE
41 578 EDWARDS NEIL 06:23:22:000 D 24 304.70 NIEDERSCHERLI, SUISSE
42 568 HAAS HANSJORG 06:23:47:000 D 25 303.60 LAUSANNE, SUISSE
43 243 BOUVIER ARNAUD 06:24:27:000 D 26 302.50 DIGNE LES BAINS, FRANCE
44 68 VAN BYNEN LEON 06:28:45:000 D 27 301.40 HAARSTEE, FRANCE
45 195 TERRAGE GILLES 06:29:27:000 E 8 322.30 GRENOBLE, FRANCE
46 133 HUTS OLIVIER 06:30:23:000 D 28 300.30 TIENEN, BELGIQUE
47 128 BOURLIER CEDRIC 06:30:56:800 C 8 322.30 THOIRY, FRANCE
48 119 RICHARDSON JAMES 06:31:26:000 D 29 299.20 BRISTOL, Royaume-Uni
49 105 VERGER ERIC 06:31:36:000 E 9 321.20 MONTELIMAR, France
50 560 LARDINOIS JEAN LUC 06:31:51:700 D 30 298.10 SOUMAGNE, BELGIQUE
51 585 RAPIN PATRICK 06:32:25:700 F 4 326.70 TAIN L HERMITAGE, FRANCE
52 14 CASIMIR IGOR 06:32:51:000 C 9 321.20 NIVOLAS VERMELLE, France
53 300 LETAILLEUR FABIEN 06:33:27:000 D 31 297.00 TEMPLEUVE, FRANCE
54 190 FREZIERES JEROME 06:33:50:000 D 32 295.90 MAISONS ALFORT, FRANCE
55 129 LANGLOIS PATRICK 06:34:40:000 F 5 325.60 PULLY, SUISSE
56 509 MICHEL FRITS 06:36:01:000 F 6 324.50 ZWOLLE, Pays-Bas
57 535 COSTET FREDERIC 06:36:08:000 D 33 294.80 ALPE D'HUEZ, FRANCE
58 250 VAN DEN TEMPEL RONNY 06:36:37:000 D 34 293.70 SCHIEDAM, Pays-Bas
59 263 VAN EKERT HENDRIK 06:37:55:000 C 10 320.10 HAMME, BELGIQUE
61 112 BERTRAND JEAN-PAUL 06:40:01:000 E 10 320.10 SAINTE FOY LES LYON, FRANCE
62 191 LEPAUMIER PASCAL 06:40:20:000 E 11 319.00 NOVAINVILLE, FRANCE
63 100 DI FRUSCIA GERMAIN 06:40:59:000 E 12 317.90 VARCES ALLIERES ET RISSET, FRANCE
64 580 BERNARD PATRICK 06:41:08:000 D 36 291.50 ST PERAY, FRANCE
65 167 CHAMPALLE PASCAL 06:41:51:000 E 13 316.80 OULLINS, FRANCE
66 148 MICHEL JOCELYN 06:42:13:000 C 11 319.00 VALS PRE LE PUY, FRANCE
67 171 RICHERT JEAN-JACQUES 06:42:35:000 E 14 315.70 QUATZENHEIM, FRANCE
68 457 LERAT MICHEL 06:42:38:000 E 15 314.60 LES ADRETS, FRANCE
69 237 PICAUD CHRISTIAN 06:43:01:000 E 16 313.50 NANTES, FRANCE
70 359 BORDES FRANCIS 06:44:36:000 F 7 323.40 GAP, FRANCE
71 340 BROERS JOHN 06:44:54:000 E 17 312.40 MAARTENSDIJK, Pays-Bas
72 205 VUARNET JEROME 06:45:44:000 F 8 322.30 GRENOBLE, FRANCE
73 212 PONS BERNARD 06:46:04:000 D 37 290.40 LUYNES, FRANCE
74 142 REIJMERS RUUD 06:46:33:000 C 12 317.90 HERTOGENBOSCH, Pays-Bas
75 211 SIOHAN FRANCOIS 06:46:44:000 G 1 330.00 COLLEX, SUISSE
76 434 CURT THIERRY 06:47:19:000 D 38 289.30 VIRIAT, FRANCE
77 436 IMBERT PHILIPPE 06:47:25:000 D 39 288.20 GAP, FRANCE
78 519 GUEGAN MICHEL 06:47:34:000 E 18 311.30 DOMENE, FRANCE
79 85 VERHULST MICHIEL 06:47:36:000 C 13 316.80 PEIZE, Pays-Bas
80 193 HATILIP WILLIAM 06:47:46:000 D 40 287.10 Toulouse, France
81 267 BRUETON MARCUS 06:51:27:000 D 41 286.00 RELGATE SURREY, Royaume-Uni
82 137 DURANTON ERIC 06:51:52:000 E 19 310.20 SAINT ETIENNE, FRANCE
83 505 VERHULST PETER 06:51:55:000 F 9 321.20 PEIZE, Pays-Bas
84 75 FOULOUNOUX THIERRY 06:52:22:000 E 20 309.10 PARIS, FRANCE
85 9 CASSOULET MICHEL 06:52:34:000 E 21 308.00 LES MENUIRES, FRANCE
86 592 FAURIE ERIC 06:52:40:700 D 42 284.90 ST ETIENNE, France
87 575 MICHEL VIVIAN 06:53:00:000 D 43 283.80 LE PUY EN VELAY, FRANCE
88 221 COLOMBIER DAVID 06:53:03:000 D 44 282.70 CALUIRE ET CUIRE, FRANCE
89 364 GAIGNON DAVID 06:53:16:000 D 45 281.60 CANNES, FRANCE
90 101 BRAY JULIAN 06:53:44:000 D 46 280.50 LONDRES, Royaume-Uni
91 185 DAVOURIE ANTHONY 06:54:05:000 C 14 315.70 HAEDINVAST, FRANCE
92 240 SAMOY WOUTER 06:54:11:000 C 15 314.60 BEST, Pays-Bas
93 448 GILLES PATRICK 06:54:28:000 D 47 279.40 PONT DE L ISERE, FRANCE
94 539 SCRIVNER DAN 06:54:35:000 E 22 306.90 AIX EN PROVENCE, FRANCE
95 168 DI GLERIA OLIVIER 06:54:59:000 D 48 278.30 CHEVENOZ, FRANCE
96 163 POPOVICS PIERRE 06:55:13:000 F 10 320.10 BOULOGNE BILLANCOURT, FRANCE
97 318 METIVIER DANIEL 06:55:21:000 F 11 319.00 SISTERON, FRANCE
98 174 HJORT BRIAN 06:56:09:000 D 49 277.20 HERLUFMAGLE, DANEMARK
99 341 PONS REGIS 06:56:27:000 E 23 305.80 ST PIERRE DE MESAGE, FRANCE
100 63 FREY DANIEL 06:57:24:300 D 50 276.10 SCHERWILLER, FRANCE
101 72 PAITA STEPHANE 06:57:31:300 D 51 275.00 LYON, FRANCE
102 270 MATTHYS MARC 06:59:27:000 E 24 304.70 WEZEMAAL, BELGIQUE
103 55 FREAU DENIS 06:59:53:000 F 12 317.90 PIOLENC, France
104 606 BILLON ETIENNE 06:59:59:000 D 52 273.90 LA MURE, FRANCE
105 553 VAN KAPELLE WIM 07:00:03:000 E 25 303.60 ETHEN, Pays-Bas
106 222 MORY SILVERE 07:00:34:000 D 53 272.80 SAINT MARTIN D HERES, France
107 93 MALLIEN ANDRE 07:00:36:000 D 54 271.70 CINEY EMPTINNE, BELGIQUE
108 117 BLADT-HANSEN OLE 07:00:48:000 E 26 302.50 RIBE, Danemark
109 200 DEPRE IVAN 07:00:50:000 E 27 301.40 ST TRUIDEN, BELGIQUE
110 462 JOUDIOUX FABRICE 07:01:17:000 D 55 270.60 TORCY, FRANCE
111 244 THOMASSON CHRISTOPHE 07:01:56:000 D 56 269.50 CIVRIEUX, FRANCE
112 235 PICCO J.LOUIS 07:01:59:000 G 2 328.90 VOREPPE, FRANCE
113 202 RUESINK ERIK 07:02:08:000 D 57 268.40 DINXPERLO, Pays-Bas
114 269 MORAN JOHN-KEVIN 07:02:12:500 D 58 267.30 MONT-SUR-ROLLE, Suisse
115 328 NICOLAS JEAN MARIE 07:04:07:000 E 28 300.30 SANILHAC, FRANCE
116 526 DE JONG PEDOR 07:04:39:000 E 29 299.20 ERMELO, Pays-Bas
117 450 BLANCHARD MATHIEU 07:04:42:100 C 16 313.50 TASSIN, FRANCE
118 550 KNOL ROBERT 07:05:47:000 D 59 266.20 UTRECHT, Pays-Bas
119 238 LICINI MARC 07:05:54:000 E 30 298.10 ROQUEMAURE, FRANCE
120 51 GODEFROID PHILIPPE 07:06:24:000 D 60 265.10 PETIT-ROEULX-KZ-BRAIN, BELGIQUE
121 182 DOUETIL MARC 07:06:34:000 E 31 297.00 BESSE SUR BRAYE, FRANCE
124 587 DESCHAMP OLIVIER 07:08:23:000 D 61 264.00 MOIVRE, FRANCE
125 46 MOREAU BERNARD 07:08:32:000 F 13 316.80 VERTAIZON, FRANCE
126 229 BULLION JULIEN 07:08:35:000 C 18 311.30 LYON, FRANCE
127 126 VAN OOSTENDE MARTIN 07:09:30:000 E 33 294.80 ZINGEM, BELGIQUE
128 180 VINIT ANDRE 07:09:52:000 E 34 293.70 MEYLAN, FRANCE
129 321 PERNET PIERRE-MICHEL 07:09:56:000 E 35 292.60 TOULON, FRANCE
130 276 BEAULOYE LIONEL 07:09:59:000 D 62 262.90 AUGAN, FRANCE
131 427 JOHNSON BEN 07:10:14:000 D 63 261.80 LONDRES, Royaume-Uni
132 97 POUTOT FRANCIS 07:10:41:000 D 64 260.70 BOURG D OISANS, France
133 189 PRAT MAURICE 07:11:19:000 G 3 327.80 CORBAS, FRANCE
134 320 BELKIS OLIVIER 07:11:44:000 C 19 310.20 LA MULATIERE, FRANCE
135 264 FIORD DAN 07:12:21:000 G 4 326.70 HELSINGE, DANEMARK
136 596 PONTON PATRICE 07:12:31:000 D 65 259.60 TAIN L'HERMITAGE, FRANCE
137 598 GAUTIER ROLAND 07:12:41:000 E 36 291.50 TOURNON SUR RHONE, FRANCE
138 113 THIRY FREDERIC 07:13:08:000 D 66 258.50 MEYLAN, FRANCE
139 532 THIRUP POUL 07:13:24:000 E 37 290.40 FREDERIKSBERG, DANEMARK
140 35 MIRANDA EDITH 07:13:28:900 A 1 330.00 ST BERNARD DU TOUVET, FRANCE
141 62 JASSERAND BRUNO 07:13:29:000 D 67 257.40 LA MOTTE, FRANCE
142 114 GARD CHRISTOPHE 07:13:29:500 D 68 256.30 OBERNAI, FRANCE
143 157 PRADEL MICHEL 07:13:46:000 F 14 315.70 VENDARGUES, FRANCE
145 206 GAULANDEAU HUGUES 07:14:47:000 E 39 288.20 AVARAY, FRANCE
146 65 AIME PHILIPPE 07:15:21:000 D 69 255.20 VENELLES, FRANCE
147 153 ALBERT DANIEL 07:16:10:000 F 15 314.60 RECULAS, FRANCE
148 19 LAUNAY MICHEL 07:16:22:000 G 5 325.60 CHEVREUSE, FRANCE
149 164 MONFORT GUY 07:17:32:000 F 16 313.50 LIERNEUX, BELGIQUE
150 152 BOUILHOL SERGE 07:17:40:400 E 40 287.10 PLANFOY, FRANCE
151 590 PRUDHOMME SERGE 07:17:59:700 E 41 286.00 SEYSSINET PARISET, FRANCE
152 209 MERCEY PIERRE 07:19:11:000 E 42 284.90 AUBAINE, FRANCE
153 246 LIEM DJOEN 07:19:13:000 E 43 283.80 AMSTERDAM, Pays-Bas
154 362 RICKARD JULIAN 07:20:41:000 D 70 254.10 EWELL, Royaume-Uni
155 369 BRANTS EDDY 07:20:46:000 E 44 282.70 EDEGEM, BELGIQUE
156 501 VANSTEENVOORT WIM 07:21:26:000 D 71 253.00 Tienen, Belgique
157 225 PONSERRE SERGE 07:21:49:000 F 17 312.40 CHAPONNAY, FRANCE
158 156 FOURNIER JEAN FRANCOIS 07:21:52:000 D 72 251.90 GARCHES, FRANCE
159 122 RUSSIAS JACQUES 07:22:05:000 F 18 311.30 AMBERT, France
160 203 RICHARDSON SIMON 07:23:39:000 C 20 309.10 SURREY, Royaume-Uni
161 290 WAMPACH ETIENNE 07:24:00:000 E 45 281.60 BRUXELLES, BELGIQUE
162 308 DUSSON CHRISTIAN 07:24:05:000 E 46 280.50 MONTBRISON, FRANCE
163 74 EQUOY-CLEMANN ISABELLE 07:24:24:000 B 1 330.00 ST PRIX, FRANCE
164 408 BARBEREAU JACQUES 07:25:59:000 F 19 310.20 SAINT MEDARD D AUNIS, FRANCE
165 502 NOEL XAVIER 07:26:32:000 D 73 250.80 LES CLAYES SOUS BOIS, FRANCE
166 146 PARIS JEAN MICHEL 07:27:17:000 E 47 279.40 BESANCON, France
167 149 HODGETTS NICHOLAS 07:27:29:000 E 48 278.30 SUTTON COLFIELD, Royaume-Uni
168 214 GUET PATRICE 07:29:50:000 E 49 277.20 GURGY, FRANCE
169 336 MARTIN RODRIGUEZ LEONARDO 07:30:08:000 E 50 276.10 SANTA CRUZ DE TENERIFE, ESPAGNE
170 169 GRAND CHAVIN PAUL 07:30:58:000 E 51 275.00 SAINT REMY, FRANCE
171 50 DICKHOUT JAN 07:31:02:000 F 20 309.10 EINDHOVEN, Pays-Bas
172 543 HENNUY ERIC 07:31:31:000 D 74 249.70 HAVAY, BELGIQUE
173 322 VIRGIL JEAN LUC 07:32:04:000 E 52 273.90 TOULON, FRANCE
174 571 TOCK PETER 07:32:16:000 F 21 308.00 ASSENDELFT, Pays-Bas
175 299 RUFFIER LUDOVIC 07:32:59:000 D 75 248.60 ALBERTVILLE, FRANCE
176 511 GUERCHOUX DENIS 07:33:17:000 D 76 247.50 BLENOD LES PONT A MOUSSON, FRANCE
177 249 KAMPS ILONA 07:33:52:000 A 2 328.90 , Pays-Bas
178 108 ECHALLIER FABRICE 07:34:50:000 C 21 308.00 LAMURE SUR AZERGUES, FRANCE
179 538 DUVERNEIX J.LOUIS 07:35:23:000 E 53 272.80 NEXON, FRANCE
180 134 BARRETO FRANCISCO 07:35:37:000 E 54 271.70 JARRIE, FRANCE
181 361 CHAMPREDONDE SERGE 07:35:41:000 E 55 270.60 PARIS, FRANCE
182 292 BOLSENBROEK MAURICE 07:37:25:000 C 22 306.90 APELDOORN, Pays-Bas
183 544 ADAMO ERIC 07:37:49:000 E 56 269.50 NICE, FRANCE
184 317 GRAGLIA VINCENZO 07:39:14:000 E 57 268.40 PINEROLO, ITALIE
185 107 CHANUT CHRISTOPHE 07:40:00:000 D 77 246.40 CRAPONNE, FRANCE
186 425 BLAISE PASCAL 07:41:35:000 E 58 267.30 VIF, FRANCE
187 366 CANTIN JACKY 07:41:55:000 F 22 306.90 MEULAN, FRANCE
188 603 QUIRION YANN 07:42:18:700 D 78 245.30 LA BOISSE, FRANCE
189 258 VAN DE VELDE KRIS 07:42:54:000 C 23 305.80 , ALLEMAGNE
190 121 THOPART ISABELLE 07:45:21:000 A 3 327.80 VILLERS BRETONNEUX, FRANCE
191 405 PETIT STEPHANE 07:46:07:200 D 79 244.20 VAUX SUR SEINE, FRANCE
192 295 VAN DER STRUIK WIM G. 07:46:32:600 E 59 266.20 HAAKSBERGEN, Pays-Bas
193 589 BILLOT CHRISTOPHNE 07:46:56:000 E 60 265.10 VIF, FRANCE
194 426 PERRIER PATRICK 07:47:18:000 E 61 264.00 MONTREAL LA CLUSE, FRANCE
195 460 DELIE VINCENT 07:48:03:000 D 80 243.10 CHATEAUROUX LES ALPES, FRANCE
196 563 CHATILLON FRANCOIS 07:48:08:000 F 23 305.80 BESANCON, FRANCE
197 565 NEDELEC PATRICK 07:48:51:000 E 62 262.90 GENAY, FRANCE
198 459 PASSAQUAY JEAN LUC 07:50:57:000 E 63 261.80 DRUMETTAZ, FRANCE
199 215 STEYER VINCENT 07:50:58:800 D 81 242.00 MUTZIG, FRANCE
200 406 VAN LIER ANDRE 07:51:29:000 D 82 240.90 HELDEN, Pays-Bas
201 552 MORICE J-FRANCOIS 07:51:46:000 E 64 260.70 ST EGREVE, FRANCE
202 500 PEREZ ANDRE 07:53:35:000 E 65 259.60 CHEN0VE, FRANCE
203 253 VAN CAPPELLE FRANS 07:53:40:000 E 66 258.50 SPAARNDAM, Pays-Bas
204 573 BUSAIN GUY 07:54:03:000 D 83 239.80 STEENOKKERZEEL, BELGIQUE
205 301 DAUCHY J.FRANCOIS 07:54:17:000 E 67 257.40 TEMPLEUVE, FRANCE
206 183 PARRAYON J.PIERRE 07:54:22:000 F 24 304.70 PARIS, FRANCE
207 582 BALLUREAU ALEXANDRE 07:54:34:000 D 84 238.70 SARCELLES, FRANCE
208 503 VERHAAGH WIEL 07:55:23:000 F 25 303.60 LOTTUM, Pays-Bas
209 90 FLORION LUC 07:55:42:000 F 26 302.50 ST AVOLD, FRANCE
210 188 MEZIN GERARD 07:55:54:000 E 68 256.30 CORENC, FRANCE
211 576 DILLO PETER JOHAN 07:56:10:000 D 85 237.60 SCHAGEN, Pays-Bas
212 227 THOPART CHRISTOPHE 07:56:43:000 D 86 236.50 CHANAS, FRANCE
213 591 GABOLDE SYLVAIN 07:56:56:000 E 69 255.20 SATHONAY VILLAGE, FRANCE
214 120 CHIAVERINA ROLAND 07:57:18:000 E 70 254.10 SAINT MAURICE L EXIL, FRANCE
215 104 RICHARDSON PETER 07:58:30:000 D 87 235.40 LONDON, Royaume-Uni
216 447 PASSUELLI ROLAND 07:58:48:100 D 88 234.30 POLIGNY, FRANCE
217 407 VAN LIER FRANK 07:59:30:600 D 89 233.20 EINDHOVEN, Pays-Bas
218 162 BORGNE ERIC 07:59:46:000 C 24 304.70 CHATOU, France
219 514 FUGA CHRISTINE 07:59:49:000 A 4 326.70 VEUREY, FRANCE
220 271 MOENS PATRICK 07:59:53:000 E 71 253.00 MACHELEN, BELGIQUE
221 595 MORETTO OLIVIER 08:00:27:000 E 72 251.90 JONZIEUX, France
222 368 COTTON JON 08:00:35:000 E 73 250.80 HEELEY SHEFFIELD, Royaume-Uni
223 604 DESFARGES PATRICK 08:01:34:000 E 74 249.70 GENAY, FRANCE
224 537 MAMPAY JOHAN 08:02:07:000 D 90 232.10 ZANHOVEN, BELGIQUE
225 350 VERRON BRUNO 08:02:11:000 E 75 248.60 BOISEMONT, FRANCE
226 507 HEWES RON 08:03:07:000 F 27 301.40 GREAT DUNMOW ESSEX, Royaume-Uni
227 197 MERTENS JOS 08:03:52:000 F 28 300.30 GROBBENDONK, BELGIQUE
228 232 PEETERS OMER 08:05:09:000 E 76 247.50 KALMTHOUT, BELGIQUE
229 574 USAI SERGIO 08:06:07:000 F 29 299.20 GENOVA, ITALIE
230 127 LEBOURGEOIS CHRISTIAN 08:07:34:000 F 30 298.10 CAEN, FRANCE
231 437 FAVRE OLIVIER 08:07:58:000 E 77 246.40 LYON, FRANCE
232 315 CHAUVEAU JEAN LOUIS 08:08:06:000 F 31 297.00 CARCES, FRANCE
233 272 GENS INGRID 08:08:47:000 A 5 325.60 GROOT BIJGAARDEN, BELGIQUE
234 159 ROUSSEL JEAN LUC 08:09:35:000 E 78 245.30 SAINT-JULIEN DU SERRE, FRANCE
235 288 DE VLEESCHOUWER DANNY 08:10:57:000 E 79 244.20 GERAARDSBERGEN, Belgique
236 583 BARNEL BERNARD 08:11:20:000 F 32 295.90 SASSENAGE, FRANCE
237 333 PATTINIER MANUEL 08:12:30:000 E 80 243.10 LA BALME DE SILLINGY, FRANCE
238 325 PASSAL CHRISTIAN 08:12:58:000 E 81 242.00 SEEZ, FRANCE
239 536 CASADO ERIC 08:13:29:000 D 91 231.00 SAINT ETIENNE, FRANCE
240 208 HENDRIX DIRK 08:13:40:000 D 92 229.90 OUTGAARDEN, BELGIQUE
241 551 VAN DE GRIENDT HANS 08:13:41:000 F 33 294.80 DRUNEN, Pays-Bas
242 528 BLAESSINGER GEORGES 08:14:35:000 G 6 324.50 OULLINS, FRANCE
243 515 SOUTE BERRY 08:14:39:900 F 34 293.70 SCHIMMERT, Pays-bas
244 298 PERROD JEAN MICHEL 08:15:10:000 E 82 240.90 PERRIGNY, FRANCE
245 355 BROSSARD ERIC 08:15:44:000 E 83 239.80 EPONE, FRANCE
246 150 JORIS ALEX 08:15:49:000 E 84 238.70 MARCHE EN FAMENNE, BELGIQUE
247 569 SIGRIST PIERRE 08:16:05:000 F 35 292.60 BERNARDSWILLER, FRANCE
248 517 DISSEL PAUL 08:16:10:000 D 93 228.80 BILTHOVEN, Pays-Bas
249 367 VILLANCE JULIEN 08:16:36:000 F 36 291.50 FAYS LES VENEURS, Belgique
250 442 BERRY DANIEL 08:16:40:000 E 85 237.60 LONDRES, Royaume-Uni
251 54 DUPIRE BENOIT 08:20:07:000 F 37 290.40 BEUVRAGES, FRANCE
252 136 VAN HOOF ROBERT 08:20:21:600 F 38 289.30 TREMELO, BELGIQUE
253 530 CHRISTISENS JOHAN 08:20:53:900 D 94 227.70 BERINGEN, BELGIQUE
254 461 BELLIVIER SANDRINE 08:22:02:000 A 6 324.50 MONTGENEVRE, FRANCE
255 510 VERHEES PAUL 08:22:26:000 D 95 226.60 HELMOND, Pays-Bas
256 332 GAETAN ROLAND 08:23:37:000 E 86 236.50 AMBRONAY, France
257 343 MALISOUX OLIVIER 08:24:01:000 C 25 303.60 TEMPLOUX, BELGIQUE
258 158 AYMARD JACQUES 08:24:22:000 G 7 323.40 MAUGUIO, FRANCE
259 198 SIMONEAU ALAIN 08:26:59:000 F 39 288.20 VARENGEVILLE SUR MER, FRANCE
260 412 ZOLLER PHILIPPE 08:27:47:600 D 96 225.50 WESTHOFFEM, FRANCE
261 413 MANGUZZI MAURIZIO 08:28:47:000 E 87 235.40 QUATTRO CASTELLA, ITALIE
262 518 BONNETIER JEAN MARIE 08:29:14:000 F 40 287.10 LONGEVILLE LES ST AVOLD, FRANCE
263 581 RODRIGUEZ AMELIO 08:29:36:000 E 88 234.30 LYON, FRANCE
264 555 MARTY SERGE 08:29:37:500 E 89 233.20 PARIS, FRANCE
265 524 VALENTINI JEAN-CLAUDE 08:29:44:000 E 90 232.10 PAJAY, FRANCE
266 521 LEICHT STEPHANE 08:30:09:000 E 91 231.00 LONGUENESSE, FRANCE
267 305 CONNAULT ROMAIN 08:31:24:000 F 41 286.00 LA TRONCHE, FRANCE
268 281 HUYGHE JAN 08:31:48:000 E 92 229.90 OOSTDUINKERKE, BELGIQUE
269 527 VAN DER VLUGT ROB 08:33:38:000 D 97 224.40 DELFT, Pays-Bas
270 559 LEUNDA RAUL 08:33:56:000 D 98 223.30 VERNEUIL SUR SEINE, FRANCE
271 512 FREDERIKSEN RENE 08:36:05:000 E 93 228.80 HVALSO, DANEMARK
272 140 MARTIN MICHEL 08:36:53:000 G 8 322.30 LES ABRETS, FRANCE
273 600 TARDY DENIS 08:37:41:000 D 99 222.20 ALBERTVILLE, FRANCE
274 438 BEGHIN PHILIPPE 08:40:14:000 E 94 227.70 BRUAY SUR L''ESCAUT, FRANCE
275 344 MALISOUX LAURENT 08:40:25:000 C 26 302.50 VIUZ EN SALLAZ, FRANCE
276 504 DE SCHUTTER KRIS 08:40:39:000 D 100 221.10 ST SYMPHORIEN D'OZON, FRANCE
277 339 GARREAU GILLES 08:41:58:000 D 101 220.00 Vallées en Champagne, France
278 346 KOCH ROGER 08:42:02:000 C 27 301.40 HILVERSUM, Pays-Bas
279 347 VAN DEN WIJNGAARD ADRY 08:42:02:200 E 95 226.60 TETERINGEN, Pays-Bas
280 145 GROEN BOB 08:42:17:000 F 42 284.90 GOUDA, Pays-bas
281 602 RIVIERE PIERRE 08:42:30:000 F 43 283.80 ST ALBAN, FRANCE
282 440 BEAUFILS MAGALI 08:45:53:000 A 7 323.40 SALLANCHES, FRANCE
283 540 GAUTIER NICOLAS 08:46:45:000 E 96 225.50 NOVES, FRANCE
284 38 HUMBERT PASCALINE 08:47:58:000 A 8 322.30 ST HILAIRE DU TOUVET, FRANCE
285 402 HERVY HENRI 08:50:19:000 G 9 321.20 BOURG D OISANS, FRANCE
286 279 FLETCHER MICHAEL 08:50:21:500 G 10 320.10 BRENTFORD, Royaume-Uni
287 280 NIJMEIJER RIAN 08:52:08:100 A 9 321.20 UTRECHT, Pays-Bas
288 522 STEVENS DAVID 08:53:24:000 D 102 218.90 BORGERHOUT, BELGIQUE
289 181 AUROUSSEAU ROBERT 08:53:52:000 F 44 282.70 FONTENAY SOUS BOIS, FRANCE
290 123 RICHARD DANIEL 08:55:29:000 F 45 281.60 DUCLAIR, FRANCE
291 525 LICINI BRIGITTE 08:56:07:000 B 2 328.90 ROQUEMAURE, FRANCE
292 210 BASCOP PASCAL 08:56:31:000 D 103 217.80 ROANNE, France
293 506 HARTMAN WILLEM 08:57:33:000 F 46 280.50 Amersfoort, Pays-Bas
294 59 AMOUROUX GUY 09:01:07:200 F 47 279.40 Valence, France
295 304 MARTINEZ MARC 09:01:11:400 F 48 278.30 PORTES LES VALENCE, FRANCE
296 252 KINNEGIM IRENE 09:01:18:400 A 10 320.10 DEN HAAG, Pays-Bas
297 531 KERKHOF JOOP 09:02:11:000 F 49 277.20 'S-HERTOGENBOSCH, Pays-Bas
298 109 TOHIER MICHEL 09:02:40:000 G 11 319.00 HERBLAY, FRANCE
299 259 VAN RIJN HARALD MAURITS 09:04:34:000 C 28 300.30 DEN HAAG, Pays-Bas
300 588 SONOT YVES 09:05:27:000 D 104 216.70 YENNE, FRANCE
301 561 VACHERON DAMIEN 09:06:00:000 C 29 299.20 SAINT JOSEPH, FRANCE
302 260 BARET OLIVIER 09:08:50:000 D 105 215.60 SAINT PIERRE, FRANCE
304 601 STANDAERT PATRICK 09:15:31:000 D 106 214.50 NEVELE, BELGIQUE
305 176 ANDERSEN CARSTEN 09:24:04:000 E 97 224.40 NAESTVED, DANEMARK
306 311 DEPOORTERE ANN 09:26:04:000 A 11 319.00 LEUVEN, BELGIQUE
307 429 DAMOY PIERRE 09:26:23:000 D 107 213.40 GEVREY CHAMBERTIN, FRANCE
308 523 VAN ROSSEM RMY 09:27:52:000 D 108 212.30 ANTWERPEN, BELGIQUE
309 173 JENSEN TORBEN RYE 09:28:43:000 E 98 223.30 NAESTVED, DANEMARK
310 155 LE PECHEUR HERVE 09:29:40:000 F 50 276.10 LE BOURGET, FRANCE
311 410 BOS MARK 09:31:57:000 D 109 211.20 BEST, Pays-Bas
312 357 DELCROIX J.JACQUES 09:33:02:000 E 99 222.20 JARNIOUX, FRANCE
313 454 MATTRAY THIERRY 09:33:41:000 D 110 210.10 BOISSISE LE ROI, FRANCE
314 584 PERMINGEAT JEAN PAUL 09:37:14:000 F 51 275.00 LIVRON SUR DROME, FRANCE
315 310 SCHUURMANS IVO 09:40:42:000 D 111 209.00 LEUVEN, BELGIQUE
316 175 JESPESEN LENE 09:41:09:000 B 3 327.80 NAESTVED, DANEMARK
317 335 DERUYTER JEAN MARIE 09:43:48:000 G 12 317.90 HOUPLINES, FRANCE
318 143 BRES JEAN 09:48:44:000 G 13 316.80 TOULON, FRANCE
319 446 GUSTAVE FREDDY 09:50:51:000 E 100 221.10 JOUY LE MOUTIER, FRANCE
320 296 SIONNET CHRISTIAN 09:51:17:000 F 52 273.90 SAINT MARTIN D HERES, France
321 319 COLLIS TAMAR 09:51:50:000 A 12 317.90 LONDON, Royaume-Uni
322 557 DEVLEESCHOUWER DIRK 09:53:26:000 E 101 220.00 BRAKEL, BELGIQUE
323 428 DAMOY GUILLAUME 09:54:03:000 D 112 207.90 LE CHESNAY, FRANCE
324 351 WATKINSON THOMAS 09:56:49:000 D 113 206.80 LANS EN VERCORS, FRANCE
325 352 WOODCOCK NIGEL 09:57:12:000 E 102 218.90 CHELTENHAM, Royaume-Uni
326 242 DEMARCHE LEOPOLD 09:59:55:000 G 14 315.70 BAILLONVILLE, BELGIQUE
327 266 LEITCH JOHN 10:00:48:000 F 53 272.80 BETCHWORTH, SURREY, UK
328 404 BROUCK DANIEL 10:09:54:000 F 54 271.70 HOUPLINES, FRANCE
329 147 LAGAEYSSE HANS 10:10:05:000 D 114 205.70 Russeignies (Mont de l Enclus), Belgique
330 570 CHIAVERINA DIDIER 10:33:11:000 E 103 217.80 MIRIBEL, FRANCE
331 439 BEAUFILS LAURENT 10:33:11:200 D 115 204.60 SALLANCHES, FRANCE
332 508 APS RUDI 10:50:40:000 D 116 203.50 HAASDONK, BELGIQUE

La Probikeshop GF Mont Ventoux Beaumes-de-Venise

Attention la date de l'épreuve n'est encore pas définitive

TOP